Weather History for Pope Field Airport, NC

Change the Weather History Date:

Saturday, February 2, 2013

  Actual Average Record
Temperature  
Mean Temperature 32 °F -  
Max Temperature 47 °F 58 °F 80 °F (1989)
Min Temperature 18 °F 35 °F 18 °F (2013)
Degree Days  
Heating Degree Days 32    
Moisture  
Dew Point 22 °F    
Average Humidity 59    
Maximum Humidity 89    
Minimum Humidity 24    
Precipitation  
Precipitation 0.01 in - - ()
Sea Level Pressure  
Sea Level Pressure 30.22 in    
Wind  
Wind Speed 5 mph (SW)    
Max Wind Speed 15 mph    
Max Gust Speed 28 mph    
Visibility 10 miles    
Events Rain    
Averages and records for this station are not official NWS values.
T = Trace of Precipitation, MM = Missing Value Source: NWS Daily Summary

Daily Weather History Graph

Daily Weather History Graph

Search for Another Location

Airport:

Trip Planner

Search our weather history database for the weather conditions in past years. The results will help you decide how hot, cold, wet, or windy it might be!

Date:

Astronomy

Feb. 02, 2013 Rise Set
Actual Time 7:14 AM EST 5:45 PM EST
Civil Twilight 6:47 AM EST 6:12 PM EST
Nautical Twilight 6:17 AM EST 6:42 PM EST
Astronomical Twilight 5:47 AM EST 7:12 PM EST
Moon No Moon Rise 10:40 AM EST (2/2)
Length of Visible Light 11h 24m
Length of Day
10h 31m
Waning Gibbous, 60% of the Moon is Illuminated
Feb 2
Waning Gibbous
Feb 3
Last Quarter
Feb 10
New
Feb 17
First Quarter
Feb 25
Full

Hourly Weather History & Observations

Time (EST) Temp. Windchill Dew Point Humidity Pressure Visibility Wind Dir Wind Speed Gust Speed Precip Events Conditions
1:55 AM 22.5 °F - 15.3 °F 74% 30.40 in 10.0 mi Calm Calm - N/A   Clear
2:55 AM 21.2 °F - 15.6 °F 79% 30.40 in 10.0 mi Calm Calm - N/A   Clear
3:55 AM 20.5 °F - 14.4 °F 77% 30.41 in 10.0 mi Calm Calm - N/A   Clear
4:55 AM 19.4 °F - 14.7 °F 82% 30.40 in 10.0 mi Calm Calm - N/A   Clear
5:55 AM 18.1 °F - 14.5 °F 86% 30.40 in 10.0 mi Calm Calm - N/A   Clear
6:55 AM 18.1 °F - 14.7 °F 86% 30.41 in 10.0 mi Calm Calm - N/A   Clear
7:55 AM 19.2 °F - 15.6 °F 86% 30.43 in 10.0 mi Calm Calm - N/A   Clear
8:55 AM 26.2 °F 20.7 °F 17.2 °F 69% 30.43 in 10.0 mi Variable 4.6 mph - N/A   Partly Cloudy
9:55 AM 30.2 °F 24.3 °F 8.4 °F 40% 30.42 in 10.0 mi SSE 5.8 mph - N/A   Overcast
10:55 AM 33.1 °F 27.7 °F 9.0 °F 37% 30.39 in 10.0 mi ESE 5.8 mph - N/A   Mostly Cloudy
11:55 AM 37.2 °F 32.6 °F 9.1 °F 31% 30.35 in 10.0 mi South 5.8 mph - N/A   Clear
12:55 PM 41.0 °F 35.8 °F 9.3 °F 27% 30.29 in 10.0 mi SE 8.1 mph - N/A   Clear
1:55 PM 44.6 °F 38.8 °F 10.2 °F 25% 30.24 in 10.0 mi SSW 11.5 mph - N/A   Clear
2:55 PM 47.1 °F - 11.5 °F 24% 30.19 in 10.0 mi SW 9.2 mph - N/A   Clear
3:55 PM 47.3 °F - 12.4 °F 25% 30.18 in 10.0 mi SW 13.8 mph - N/A   Mostly Cloudy
4:55 PM 47.7 °F - 14.9 °F 27% 30.15 in 10.0 mi SSW 6.9 mph - N/A   Clear
5:55 PM 46.2 °F 44.1 °F 18.7 °F 33% 30.13 in 10.0 mi SSW 4.6 mph - N/A   Mostly Cloudy
6:55 PM 45.1 °F 42.8 °F 20.7 °F 38% 30.11 in 10.0 mi South 4.6 mph - N/A   Overcast
7:55 PM 40.1 °F 35.3 °F 24.3 °F 53% 30.09 in 10.0 mi SSW 6.9 mph - N/A   Overcast
8:45 PM 46.4 °F 42.9 °F 30.2 °F 53% 30.09 in 10.0 mi WSW 6.9 mph - N/A Rain Light Rain
8:55 PM 44.8 °F 39.9 °F 31.8 °F 60% 30.09 in 10.0 mi WSW 9.2 mph - 0.00 in   Light Drizzle
8:59 PM 44.6 °F 40.2 °F 32.0 °F 61% 30.09 in 10.0 mi West 8.1 mph 19.6 mph N/A   Overcast
9:14 PM 44.6 °F 40.2 °F 30.2 °F 57% 30.09 in 10.0 mi WSW 8.1 mph - N/A   Light Drizzle
9:21 PM 44.6 °F 37.8 °F 30.2 °F 57% 30.10 in 10.0 mi SW 15.0 mph 20.7 mph N/A   Mostly Cloudy
9:30 PM 44.6 °F 39.2 °F 30.2 °F 57% 30.09 in 10.0 mi West 10.4 mph 20.7 mph N/A   Light Drizzle
9:55 PM 43.5 °F 36.4 °F 35.4 °F 73% 30.10 in 10.0 mi West 15.0 mph 27.6 mph 0.00 in Rain Light Rain
10:42 PM 42.8 °F 36.2 °F 37.4 °F 81% 30.09 in 10.0 mi West 12.7 mph - N/A Rain Light Rain
10:44 PM 42.8 °F 36.6 °F 37.4 °F 81% 30.09 in 10.0 mi West 11.5 mph - N/A Rain Light Rain
10:55 PM 42.1 °F 34.5 °F 37.9 °F 85% 30.09 in 10.0 mi West 15.0 mph 26.5 mph 0.01 in Rain Light Rain
11:31 PM 41.0 °F 35.8 °F 37.4 °F 87% 30.08 in 10.0 mi West 8.1 mph - N/A   Overcast
11:55 PM 41.2 °F 35.5 °F 38.3 °F 89% 30.06 in 10.0 mi West 9.2 mph - 0.00 in   Overcast